FW4361 Weather Reports


time (UTC)temp
F
wind
direction
speed
knots
gust
knots
rain 1hr
in
rain 24hr
in
rain mn
in
humidity
%
barometer
mb
20260507201551 53 269 7.0 11.3 0.00 1.28 1.28 80 1003.5
20260507200054 53 305 5.2 10.4 0.00 1.28 1.28 80 1003.5
20260507194547 54 263 5.2 11.3 0.00 1.28 1.28 81 1003.5
20260507193055 54 192 5.2 10.4 0.00 1.28 1.28 81 1003.4
20260507191553 54 246 6.1 12.2 0.00 1.28 1.28 81 1003.4
20260507190052 54 319 4.3 11.3 0.00 1.28 1.28 83 1003.3
20260507184549 56 276 3.5 8.7 0.00 1.28 1.28 86 1003.3
20260507183054 54 276 2.6 8.7 0.00 1.28 1.28 89 1003.1
20260507181547 54 259 2.6 9.6 0.00 1.28 1.28 91 1003.4
20260507180046 54 234 2.6 7.8 0.00 1.28 1.28 93 1003.4
20260507174603 52 275 1.7 5.2 0.00 1.28 1.28 95 1003.3
20260507173059 51 51 2.6 8.7 0.00 1.28 1.28 96 1002.7
20260507171612 50 354 3.5 7.0 0.00 1.28 1.28 96 1003.6
20260507170057 49 298 2.6 8.7 0.00 1.28 1.28 96 1003.9
20260507164605 49 274 0.9 7.0 0.00 1.28 1.28 96 1003.7
20260507163051 48 356 4.3 9.6 0.01 1.28 1.28 96 1004.1
20260507161550 48 348 0.9 6.1 0.03 1.28 1.28 96 1003.1
20260507160051 48 334 1.7 8.7 0.03 1.27 1.27 96 1004.3
20260507154555 48 263 3.5 8.7 0.05 1.27 1.27 96 1004.5
20260507153052 48 227 0.9 7.0 0.07 1.26 1.26 96 1003.7
20260507151552 48 177 1.7 5.2 0.07 1.25 1.25 96 1003.6
20260507150047 48 143 0.9 3.5 0.08 1.23 1.23 96 1003.8
20260507144553 48 225 0.9 5.2 0.08 1.22 1.22 96 1004.2
20260507143055 48 138 2.6 4.3 0.09 1.19 1.19 96 1004.3
20260507141556 48 125 1.7 4.3 0.16 1.18 1.18 96 1004.5
20260507140051 47 130 0.9 2.6 0.20 1.14 1.14 96 1004.2
20260507134555 47 0 0.9 2.6 0.29 1.13 1.13 96 1004.3
20260507133050 47 208 0.9 2.6 0.33 1.10 1.10 96 1005.0
20260507131546 47 0 0.9 2.6 0.28 1.00 1.00 96 1005.1
20260507130051 47 46 0.9 5.2 0.25 0.94 0.94 96 1004.7
20260507124555 47 239 3.5 7.8 0.15 0.84 0.84 96 1005.3
20260507123051 47 229 1.7 7.8 0.07 0.76 0.76 96 1005.7
20260507121601 47 192 4.3 12.2 0.03 0.72 0.72 96 1005.3
20260507120047 48 152 5.2 13.9 0.00 0.69 0.69 96 1005.6
20260507114549 48 177 5.2 13.0 0.00 0.68 0.68 96 1005.5
20260507113052 49 171 5.2 9.6 0.00 0.68 0.68 96 1005.5
20260507111549 49 157 6.1 12.2 0.00 0.68 0.68 96 1005.2
20260507110105 49 180 7.0 14.8 0.00 0.68 0.68 96 1005.4
20260507104548 49 173 5.2 13.9 0.00 0.68 0.68 96 1005.5
20260507103053 49 155 7.0 16.5 0.00 0.68 0.68 96 1005.7
20260507101551 49 148 7.0 18.2 0.00 0.68 0.68 96 1005.8
20260507100051 49 198 7.8 18.2 0.00 0.68 0.68 96 1005.6
20260507094557 49 161 7.8 13.9 0.00 0.68 0.68 96 1005.6
20260507093055 49 183 8.7 15.6 0.00 0.67 0.67 95 1005.4
20260507091608 50 209 7.8 19.1 0.00 0.67 0.67 96 1005.6
20260507090057 50 196 8.7 18.2 0.00 0.67 0.67 95 1005.8
20260507084554 50 166 11.3 20.0 0.00 0.67 0.67 96 1005.9
20260507083050 51 225 8.7 22.6 0.00 0.67 0.67 96 1005.8
20260507081547 51 155 11.3 20.0 0.03 0.67 0.67 95 1005.8
20260507080056 51 155 11.3 22.6 0.04 0.67 0.67 95 1005.9
20260507074547 52 177 13.0 24.3 0.07 0.66 0.66 95 1006.0
20260507073050 52 155 13.9 24.3 0.14 0.66 0.66 96 1006.1
20260507071554 52 184 13.0 23.5 0.25 0.64 0.64 95 1006.3
20260507070059 52 154 13.9 28.7 0.28 0.62 0.62 96 1006.3
20260507064807 51 161 12.2 22.6 0.29 0.59 0.59 95 1006.4
20260507063052 50 121 11.3 20.0 0.29 0.51 0.51 95 1006.7
20260507061551 49 174 11.3 21.7 0.29 0.38 0.38 95 1006.8
20260507054552 50 153 10.4 23.5 0.29 0.29 0.29 95 1007.1
20260507053052 50 156 9.6 18.2 0.21 0.21 0.21 94 1007.7
20260507051546 49 150 12.2 21.7 0.08 0.08 0.08 94 1008.3
20260507050048 50 200 9.6 20.9 0.03 0.03 0.03 93 1008.7
20260507044548 50 171 11.3 20.9 0.00 0.00 0.00 93 1008.9
20260507043048 50 155 9.6 19.1 0.00 0.00 0.00 93 1009.2
20260507041548 50 157 10.4 19.1 0.00 0.00 0.00 93 1009.5
20260507040051 50 161 11.3 20.9 0.00 0.00 0.00 92 1009.7
20260507034557 51 149 10.4 18.2 0.00 0.00 0.00 93 1009.7
20260507033049 50 178 8.7 16.5 0.00 0.00 0.00 92 1010.0
20260507031546 50 161 11.3 21.7 0.00 0.00 0.00 92 1010.4
20260507030052 50 168 12.2 21.7 0.00 0.00 0.00 92 1010.8
20260507024554 50 160 10.4 20.9 0.00 0.00 0.00 92 1011.2
20260507023047 50 155 9.6 20.0 0.00 0.00 0.00 92 1011.7
20260507021551 50 169 11.3 20.0 0.00 0.00 0.00 92 1011.9
20260507020053 51 149 7.8 18.2 0.00 0.00 0.00 91 1012.2
20260507014550 51 160 8.7 16.5 0.00 0.00 0.00 90 1012.5
20260507013046 52 146 7.8 17.4 0.00 0.00 0.00 89 1012.9
20260507011555 54 140 7.8 18.2 0.00 0.00 0.00 90 1013.0
20260507010109 53 164 7.8 22.6 0.00 0.00 0.00 89 1013.3
20260507004553 52 219 8.7 20.9 0.00 0.00 0.00 90 1013.5
20260507003053 52 103 10.4 20.0 0.00 0.00 0.00 89 1012.3
20260507001555 53 169 10.4 19.1 0.00 0.00 0.00 90 1013.3
20260507000059 53 180 10.4 20.0 0.00 0.00 0.00 89 1013.8
20260506234550 53 165 12.2 21.7 0.00 0.00 0.00 89 1014.0
20260506233059 53 183 10.4 20.0 0.00 0.00 0.00 89 1014.1
20260506231551 54 165 11.3 21.7 0.00 0.00 0.00 89 1014.1
20260506230054 54 169 8.7 21.7 0.00 0.00 0.00 89 1014.0
20260506224554 54 143 11.3 20.9 0.00 0.00 0.00 88 1014.0
20260506223058 54 149 12.2 21.7 0.00 0.00 0.00 89 1014.0
20260506221549 54 194 11.3 19.1 0.00 0.00 0.00 88 1014.2
20260506220052 54 161 8.7 20.9 0.00 0.00 0.00 88 1014.2
20260506214556 55 148 12.2 20.9 0.00 0.00 0.00 87 1014.1
20260506213045 55 155 10.4 21.7 0.00 0.00 0.00 87 1014.2
20260506211556 55 183 12.2 21.7 0.00 0.00 0.00 86 1014.4
20260506210052 55 179 10.4 22.6 0.00 0.00 0.00 87 1014.7
20260506204551 55 154 12.2 20.9 0.00 0.00 0.00 86 1014.7
20260506203049 55 154 12.2 21.7 0.00 0.00 0.00 86 1014.6